BERLEVAG current weather conditions

sailwx.info

Wind from 320 at 34 knots

Air temperature -2.0° C
Visibility: greater than 5.4 NM
Dewpoint -6.0° C
Present weather: Showers in the vicinity.

Last reported at 2020-Jan-22 13:50 UTC.
Time now 2020-Jan-22 14:48 UTC

Location: N 70°52' E 029°02'.
View on Google Maps.

See reports from other nearby stations

  
Tides and Currents Weather Stations Pressure Air Temp Water Temp Dewpoint Dewpoint Depression Visibility Wind Speed Wind Dir Waves Ship Positions
date/time (UTC)wind fromknots sea level pressurealtimeterstation pressurevisibilityair tempwater tempwave heightnotes
2020-Jan-22 13:50 320 34 5.4-2.0 Showers in the vicinity.
2020-Jan-22 12:50 320 34 5.4-2.0 Showers in the vicinity.
2020-Jan-22 11:50 320 35 gusting 47 2.7-3.0 Light snow showers. Blowing snow.
2020-Jan-22 10:50 320 34 gusting 45 3.2-4.0 Light snow showers. Blowing snow.
2020-Jan-22 09:50 320 34 gusting 44 5.4-3.0
2020-Jan-22 08:50 310 33 5.4-5.0 Light low drifting snow.
2020-Jan-22 07:50 310 33 5.4-4.0 Light snow showers. Blowing snow.
2020-Jan-22 06:50 320 34 5.4-4.0 Light snow showers.
2020-Jan-22 05:50 320 34 5.4-4.0 Light snow showers. Blowing snow.
2020-Jan-21 21:50 340 26 5.4-1.0
2020-Jan-21 20:50 350 21 5.4-1.0
2020-Jan-21 19:50 360 21 5.4-1.0
2020-Jan-21 18:50 020 21 5.4-0.0
2020-Jan-21 17:50 020 25 5.4 1.0
2020-Jan-21 16:50 020 26 5.4 1.0
2020-Jan-21 15:50 270 22 3.8 1.0 Light snow showers.
2020-Jan-21 14:50 260 20 5.4-0.0 Light snow showers.
2020-Jan-21 13:50 250 20 5.4 1.0
2020-Jan-21 12:50 260 22 5.4 1.0 Light snow showers. Light low drifting snow.
2020-Jan-21 12:26 260 22 0.6 1.0 Snow showers. Light low drifting snow.
2020-Jan-21 11:50 260 27 5.4-0.0 Light snow showers. Light low drifting snow.
2020-Jan-21 11:20 260 24 gusting 34 0.8 1.0 Snow showers. Light low drifting snow.
2020-Jan-21 10:50 260 27 5.4-0.0 Showers in the vicinity.
2020-Jan-21 10:20 260 25 5.4 1.0
2020-Jan-21 09:50 260 28 gusting 41 1.6 1.0 Light snow showers. Light low drifting snow.
2020-Jan-21 08:50 260 26 5.4 1.0 Light snow showers.
2020-Jan-21 07:50 240 24 5.4-0.0
2020-Jan-21 06:50 250 19 5.4 1.0
2020-Jan-21 06:20 260 22 5.4 2.0
2020-Jan-21 05:50 260 22 5.4 2.0
2020-Jan-20 21:50 230 26 5.4 1.0 Light drizzle snow. Light low drifting snow.
2020-Jan-20 21:20 230 25 3.2-0.0 Light drizzle snow. Light low drifting snow.
2020-Jan-20 20:50 230 24 3.8 1.0 Light drizzle snow. Light low drifting snow.
2020-Jan-20 20:20 220 22 4.3 1.0 Light rain showers. Light low drifting snow.
2020-Jan-20 19:50 210 20 5.4-0.0 Light low drifting snow.
2020-Jan-20 19:20 200 24 5.4-0.0 Light low drifting snow.
2020-Jan-20 18:50 220 17 5.4 1.0 Light low drifting snow.
2020-Jan-20 17:50 220 20 5.4 1.0 Light low drifting snow.
2020-Jan-20 16:50 210 22 5.4-0.0 Light low drifting snow.
2020-Jan-20 15:50 220 21 5.4-0.0 Light low drifting snow.
2020-Jan-20 15:20 220 20 5.4-1.0 Light low drifting snow.
2020-Jan-20 14:50 210 24 5.4-3.0